"Zeitpunkt";"timestamp";"D0";"V0";"V0_max";"T0";"F0";"G0";"S0";"R0";"M0";"T1";"L0";"L0_nn"
"27.03.2024, 00:00";"1711501201";"146";"2";"5";"96";"71";"9";"0";"0";"0";"83";"0";"9698"
"27.03.2024, 00:10";"1711501801";"142";"2";"5";"94";"71";"9";"0";"0";"0";"83";"0";"9698"
"27.03.2024, 00:20";"1711502401";"177";"2";"6";"98";"65";"8";"0";"0";"0";"91";"0";"9698"
"27.03.2024, 00:30";"1711503002";"153";"3";"8";"99";"65";"9";"0";"0";"0";"88";"0";"9698"
"27.03.2024, 00:40";"1711503601";"167";"3";"7";"103";"62";"8";"0";"0";"0";"94";"0";"9698"
"27.03.2024, 00:50";"1711504201";"164";"3";"6";"103";"62";"8";"0";"0";"0";"92";"0";"9698"
"27.03.2024, 01:00";"1711504801";"159";"3";"7";"104";"63";"8";"0";"0";"0";"92";"0";"9695"
"27.03.2024, 01:10";"1711505401";"159";"3";"6";"103";"64";"8";"0";"0";"0";"91";"0";"9695"
"27.03.2024, 01:20";"1711506001";"164";"2";"7";"102";"61";"8";"0";"0";"0";"90";"0";"9695"
"27.03.2024, 01:30";"1711506601";"156";"3";"7";"103";"61";"8";"0";"0";"0";"92";"0";"9695"
"27.03.2024, 01:40";"1711507201";"163";"4";"8";"103";"61";"8";"0";"0";"0";"92";"0";"9695"
"27.03.2024, 01:50";"1711507801";"159";"3";"7";"104";"60";"8";"0";"0";"0";"94";"0";"9695"
"27.03.2024, 02:00";"1711508401";"155";"4";"9";"105";"59";"8";"0";"0";"0";"96";"0";"9693"
"27.03.2024, 02:10";"1711509001";"146";"4";"9";"107";"59";"9";"0";"0";"0";"97";"0";"9693"
"27.03.2024, 02:20";"1711509601";"155";"4";"9";"106";"60";"8";"0";"0";"0";"93";"0";"9693"
"27.03.2024, 02:30";"1711510201";"172";"3";"7";"104";"61";"8";"0";"0";"0";"91";"0";"9693"
"27.03.2024, 02:40";"1711510801";"168";"3";"6";"102";"63";"8";"0";"0";"0";"88";"0";"9693"
"27.03.2024, 02:50";"1711511402";"173";"2";"5";"100";"64";"8";"0";"0";"0";"85";"0";"9693"
"27.03.2024, 03:00";"1711512001";"173";"2";"5";"100";"64";"8";"0";"0";"0";"85";"0";"9688"
"27.03.2024, 03:10";"1711512601";"171";"2";"5";"97";"66";"8";"0";"0";"0";"82";"0";"9688"
"27.03.2024, 03:20";"1711513201";"173";"2";"5";"97";"66";"8";"0";"0";"0";"85";"0";"9688"
"27.03.2024, 03:30";"1711513801";"175";"3";"5";"96";"67";"8";"0";"0";"0";"85";"0";"9688"
"27.03.2024, 03:40";"1711514401";"175";"3";"4";"96";"67";"8";"0";"0";"0";"82";"0";"9688"
"27.03.2024, 03:50";"1711515001";"172";"2";"4";"96";"66";"8";"0";"0";"0";"84";"0";"9688"
"27.03.2024, 04:00";"1711515601";"164";"2";"5";"95";"70";"8";"0";"0";"0";"85";"0";"9684"
"27.03.2024, 04:10";"1711516201";"183";"3";"5";"94";"70";"8";"0";"0";"0";"84";"0";"9684"
"27.03.2024, 04:20";"1711516801";"182";"3";"6";"95";"69";"8";"0";"0";"0";"89";"0";"9684"
"27.03.2024, 04:30";"1711517401";"178";"3";"5";"95";"71";"8";"0";"0";"0";"88";"0";"9684"
"27.03.2024, 04:40";"1711518001";"178";"3";"5";"96";"69";"8";"0";"0";"0";"90";"0";"9684"
"27.03.2024, 04:50";"1711518601";"160";"2";"4";"98";"68";"8";"0";"0";"0";"93";"0";"9684"
"27.03.2024, 05:00";"1711519201";"158";"2";"4";"99";"72";"13";"0";"0";"0";"93";"0";"9691"
"27.03.2024, 05:10";"1711519801";"172";"2";"4";"99";"71";"14";"0";"0";"0";"94";"0";"9691"
"27.03.2024, 05:20";"1711520401";"172";"3";"4";"100";"70";"13";"0";"0";"0";"96";"0";"9691"
"27.03.2024, 05:30";"1711521001";"172";"2";"4";"101";"69";"20";"0";"0";"0";"97";"0";"9691"
"27.03.2024, 05:40";"1711521601";"178";"3";"5";"102";"69";"16";"0";"0";"0";"98";"0";"9691"
"27.03.2024, 05:50";"1711522201";"177";"4";"6";"104";"69";"19";"0";"0";"0";"101";"0";"9691"
"27.03.2024, 06:00";"1711522801";"176";"4";"6";"105";"70";"32";"0";"0";"0";"103";"0";"9698"
"27.03.2024, 06:10";"1711523401";"180";"3";"8";"107";"69";"43";"0";"0";"0";"106";"0";"9698"
"27.03.2024, 06:20";"1711524001";"172";"1";"4";"108";"69";"40";"0";"0";"0";"106";"0";"9698"
"27.03.2024, 06:30";"1711524601";"179";"4";"9";"108";"71";"38";"0";"0";"0";"107";"0";"9698"
"27.03.2024, 06:40";"1711525201";"191";"4";"8";"109";"71";"55";"0";"0";"0";"107";"0";"9698"
"27.03.2024, 06:50";"1711525802";"183";"4";"7";"109";"71";"60";"0";"0";"0";"110";"0";"9698"
"27.03.2024, 07:00";"1711526401";"181";"3";"7";"110";"72";"78";"0";"0";"0";"111";"0";"9702"
"27.03.2024, 07:10";"1711527001";"193";"3";"7";"109";"71";"61";"0";"0";"0";"110";"0";"9702"
"27.03.2024, 07:20";"1711527601";"192";"4";"8";"110";"72";"81";"0";"0";"0";"113";"0";"9702"
"27.03.2024, 07:30";"1711528201";"187";"4";"7";"110";"72";"88";"0";"0";"0";"110";"0";"9702"
"27.03.2024, 07:40";"1711528801";"196";"5";"10";"109";"70";"93";"0";"0";"0";"112";"0";"9702"
"27.03.2024, 07:50";"1711529401";"193";"6";"10";"109";"71";"115";"0";"0";"0";"113";"0";"9702"
"27.03.2024, 08:00";"1711530001";"194";"5";"10";"109";"70";"126";"0";"0";"0";"114";"0";"9702"
"27.03.2024, 08:10";"1711530601";"200";"4";"9";"109";"70";"113";"0";"0";"0";"117";"0";"9702"
"27.03.2024, 08:20";"1711531201";"216";"5";"11";"111";"69";"169";"0";"0";"0";"121";"0";"9702"
"27.03.2024, 08:30";"1711531801";"209";"5";"11";"112";"70";"310";"0";"0";"0";"122";"0";"9702"
"27.03.2024, 08:40";"1711532401";"218";"6";"11";"112";"70";"195";"0";"0";"0";"115";"0";"9702"
"27.03.2024, 08:50";"1711533001";"223";"7";"12";"111";"71";"99";"0";"0";"0";"116";"0";"9702"
"27.03.2024, 09:00";"1711533601";"228";"7";"13";"110";"71";"97";"0";"0";"0";"113";"0";"9707"
"27.03.2024, 09:10";"1711534201";"227";"7";"12";"111";"72";"170";"0";"0";"0";"121";"0";"9707"
"27.03.2024, 09:20";"1711534801";"225";"5";"12";"111";"72";"131";"0";"0";"0";"116";"0";"9707"
"27.03.2024, 09:30";"1711535401";"246";"6";"11";"109";"73";"107";"0";"0";"0";"106";"0";"9707"
"27.03.2024, 09:40";"1711536001";"223";"5";"10";"107";"73";"52";"0";"0";"0";"108";"0";"9707"
"27.03.2024, 09:50";"1711536601";"239";"7";"14";"106";"73";"71";"0";"0";"0";"105";"0";"9707"
"27.03.2024, 10:00";"1711537201";"233";"6";"13";"105";"74";"78";"0";"0";"0";"104";"0";"9712"
"27.03.2024, 10:10";"1711537801";"228";"8";"17";"103";"75";"71";"0";"0";"0";"105";"0";"9712"
"27.03.2024, 10:20";"1711538401";"237";"7";"13";"103";"77";"92";"0";"0";"0";"104";"0";"9712"
"27.03.2024, 10:30";"1711539001";"232";"7";"12";"101";"77";"85";"0";"0";"0";"104";"0";"9712"
"27.03.2024, 10:40";"1711539601";"216";"7";"13";"99";"80";"97";"0";"0";"0";"100";"0";"9712"
"27.03.2024, 10:50";"1711540201";"218";"5";"12";"98";"81";"114";"0";"1";"0";"91";"0";"9712"
"27.03.2024, 11:00";"1711540801";"223";"5";"13";"96";"83";"112";"0";"5";"0";"93";"0";"9716"
"27.03.2024, 11:10";"1711541401";"248";"3";"8";"96";"84";"134";"0";"10";"0";"93";"0";"9716"
"27.03.2024, 11:20";"1711542001";"251";"4";"8";"94";"84";"99";"0";"10";"0";"88";"0";"9716"
"27.03.2024, 11:30";"1711542601";"227";"5";"11";"93";"83";"57";"0";"10";"0";"85";"0";"9716"
"27.03.2024, 11:40";"1711543201";"205";"5";"11";"92";"83";"63";"0";"10";"0";"85";"0";"9716"
"27.03.2024, 11:50";"1711543801";"208";"5";"9";"92";"82";"106";"0";"10";"0";"89";"0";"9716"
"27.03.2024, 12:00";"1711544401";"220";"5";"9";"91";"82";"124";"0";"10";"0";"86";"0";"9719"
"27.03.2024, 12:10";"1711545001";"215";"3";"8";"91";"82";"112";"0";"10";"0";"89";"0";"9719"
"27.03.2024, 12:20";"1711545601";"216";"5";"8";"92";"82";"113";"0";"10";"0";"89";"0";"9719"
"27.03.2024, 12:30";"1711546201";"200";"5";"9";"91";"79";"97";"0";"10";"0";"91";"0";"9719"
"27.03.2024, 12:40";"1711546801";"224";"6";"11";"91";"76";"65";"0";"0";"0";"90";"0";"9719"
"27.03.2024, 12:50";"1711547401";"222";"6";"12";"91";"77";"70";"0";"0";"0";"91";"0";"9719"
"27.03.2024, 13:00";"1711548001";"216";"5";"9";"92";"78";"98";"0";"0";"0";"96";"0";"9723"
"27.03.2024, 13:10";"1711548601";"211";"3";"8";"93";"77";"113";"0";"0";"0";"100";"0";"9723"
"27.03.2024, 13:20";"1711549201";"216";"3";"7";"95";"74";"103";"0";"0";"0";"100";"0";"9723"
"27.03.2024, 13:30";"1711549801";"198";"3";"6";"97";"73";"103";"0";"0";"0";"105";"0";"9723"
"27.03.2024, 13:40";"1711550401";"155";"3";"7";"98";"70";"148";"0";"0";"0";"103";"0";"9723"
"27.03.2024, 13:50";"1711551001";"108";"2";"7";"99";"69";"121";"0";"0";"0";"103";"0";"9723"
"27.03.2024, 14:00";"1711551601";"177";"3";"7";"99";"71";"112";"0";"0";"0";"101";"0";"9721"
"27.03.2024, 14:10";"1711552201";"176";"3";"7";"99";"71";"92";"0";"0";"0";"99";"0";"9721"
"27.03.2024, 14:20";"1711552801";"175";"3";"6";"99";"69";"93";"0";"0";"0";"99";"0";"9721"
"27.03.2024, 14:30";"1711553401";"172";"3";"6";"99";"69";"97";"0";"0";"0";"97";"0";"9721"
"27.03.2024, 14:40";"1711554001";"171";"3";"6";"99";"70";"51";"0";"0";"0";"99";"0";"9721"
"27.03.2024, 14:50";"1711554601";"163";"3";"7";"100";"70";"49";"0";"0";"0";"98";"0";"9721"
"27.03.2024, 15:00";"1711555201";"178";"4";"8";"100";"68";"40";"0";"0";"0";"98";"0";"9726"
"27.03.2024, 15:10";"1711555801";"165";"3";"7";"100";"69";"31";"0";"0";"0";"97";"0";"9726"
"27.03.2024, 15:20";"1711556401";"154";"3";"8";"100";"70";"26";"0";"0";"0";"95";"0";"9726"
"27.03.2024, 15:30";"1711557001";"157";"3";"8";"99";"70";"23";"0";"0";"0";"94";"0";"9726"
"27.03.2024, 15:40";"1711557601";"158";"3";"8";"99";"70";"30";"0";"0";"0";"93";"0";"9726"
"27.03.2024, 15:50";"1711558201";"144";"4";"7";"98";"71";"31";"0";"0";"0";"93";"0";"9726"
"27.03.2024, 16:00";"1711558801";"143";"4";"8";"98";"71";"19";"0";"0";"0";"92";"0";"9726"
"27.03.2024, 16:10";"1711559401";"147";"3";"8";"97";"71";"13";"0";"0";"0";"92";"0";"9726"
"27.03.2024, 16:20";"1711560001";"141";"2";"6";"97";"72";"13";"0";"0";"0";"90";"0";"9726"
"27.03.2024, 16:30";"1711560601";"155";"3";"7";"96";"72";"15";"0";"0";"0";"89";"0";"9726"
"27.03.2024, 16:40";"1711561201";"150";"3";"8";"96";"73";"16";"0";"0";"0";"88";"0";"9726"
"27.03.2024, 16:50";"1711561801";"146";"2";"5";"96";"72";"38";"0";"0";"0";"90";"0";"9726"
"27.03.2024, 17:00";"1711562401";"132";"2";"7";"96";"72";"143";"0";"0";"0";"88";"0";"9723"
"27.03.2024, 17:10";"1711563001";"145";"1";"5";"96";"72";"11";"0";"0";"0";"87";"0";"9723"
"27.03.2024, 17:20";"1711563601";"137";"2";"6";"95";"72";"9";"0";"0";"0";"86";"0";"9723"
"27.03.2024, 17:30";"1711564201";"139";"1";"6";"94";"73";"9";"0";"0";"0";"85";"0";"9723"
"27.03.2024, 17:40";"1711564801";"128";"1";"7";"94";"72";"9";"0";"0";"0";"85";"0";"9723"
"27.03.2024, 17:50";"1711565401";"129";"2";"5";"94";"72";"9";"0";"0";"0";"85";"0";"9723"
"27.03.2024, 18:00";"1711566001";"140";"2";"5";"94";"73";"9";"0";"0";"0";"84";"0";"9723"
"27.03.2024, 18:10";"1711566601";"156";"1";"5";"93";"74";"8";"0";"0";"0";"82";"0";"9723"
"27.03.2024, 18:20";"1711567201";"159";"2";"5";"92";"74";"9";"0";"0";"0";"84";"0";"9723"
"27.03.2024, 18:30";"1711567801";"156";"3";"6";"92";"74";"8";"0";"0";"0";"85";"0";"9723"
"27.03.2024, 18:40";"1711568401";"148";"3";"6";"92";"74";"9";"0";"0";"0";"83";"0";"9723"
"27.03.2024, 18:50";"1711569001";"149";"3";"8";"92";"74";"9";"0";"0";"0";"84";"0";"9723"
"27.03.2024, 19:00";"1711569601";"156";"3";"8";"92";"74";"8";"0";"0";"0";"85";"0";"9721"
"27.03.2024, 19:10";"1711570201";"160";"4";"7";"91";"74";"8";"0";"0";"0";"83";"0";"9721"
"27.03.2024, 19:20";"1711570801";"154";"4";"8";"91";"75";"8";"0";"0";"0";"82";"0";"9721"
"27.03.2024, 19:30";"1711571401";"157";"3";"6";"91";"75";"8";"0";"0";"0";"83";"0";"9721"
"27.03.2024, 19:40";"1711572001";"157";"4";"7";"90";"75";"8";"0";"0";"0";"84";"0";"9721"
"27.03.2024, 19:50";"1711572601";"162";"4";"10";"90";"75";"8";"0";"0";"0";"83";"0";"9721"
"27.03.2024, 20:00";"1711573201";"160";"4";"9";"90";"75";"8";"0";"0";"0";"83";"0";"9719"
"27.03.2024, 20:10";"1711573801";"157";"4";"9";"90";"75";"8";"0";"0";"0";"84";"0";"9719"
"27.03.2024, 20:20";"1711574401";"155";"4";"8";"90";"75";"8";"0";"0";"0";"83";"0";"9719"
"27.03.2024, 20:30";"1711575001";"158";"4";"9";"91";"74";"8";"0";"0";"0";"84";"0";"9719"
"27.03.2024, 20:40";"1711575601";"160";"4";"8";"91";"74";"8";"0";"0";"0";"84";"0";"9719"
"27.03.2024, 20:50";"1711576201";"159";"4";"9";"91";"74";"8";"0";"0";"0";"82";"0";"9719"
"27.03.2024, 21:00";"1711576802";"160";"4";"8";"91";"74";"8";"0";"0";"0";"83";"0";"9714"
"27.03.2024, 21:10";"1711577401";"156";"5";"9";"91";"74";"8";"0";"0";"0";"83";"0";"9714"
"27.03.2024, 21:20";"1711578001";"170";"4";"7";"90";"73";"8";"0";"0";"0";"83";"0";"9714"
"27.03.2024, 21:30";"1711578601";"167";"3";"7";"90";"74";"8";"0";"0";"0";"82";"0";"9714"
"27.03.2024, 21:40";"1711579201";"156";"3";"8";"90";"74";"8";"0";"0";"0";"81";"0";"9714"
"27.03.2024, 21:50";"1711579801";"167";"4";"9";"89";"75";"8";"0";"0";"0";"80";"0";"9714"
"27.03.2024, 22:00";"1711580401";"174";"3";"7";"88";"75";"8";"0";"0";"0";"80";"0";"9712"
"27.03.2024, 22:10";"1711581001";"166";"3";"7";"88";"75";"8";"0";"0";"0";"80";"0";"9712"
"27.03.2024, 22:20";"1711581601";"160";"4";"8";"88";"75";"8";"0";"0";"0";"80";"0";"9712"
"27.03.2024, 22:30";"1711582201";"157";"3";"6";"87";"75";"8";"0";"0";"0";"79";"0";"9712"
"27.03.2024, 22:40";"1711582801";"157";"3";"6";"87";"75";"8";"0";"0";"0";"79";"0";"9712"
"27.03.2024, 22:50";"1711583401";"157";"3";"7";"87";"75";"8";"0";"0";"0";"79";"0";"9712"
"27.03.2024, 23:00";"1711584001";"152";"3";"6";"86";"75";"8";"0";"0";"0";"79";"0";"9707"
"27.03.2024, 23:10";"1711584601";"149";"3";"8";"86";"75";"8";"0";"0";"0";"78";"0";"9707"
"27.03.2024, 23:20";"1711585201";"159";"3";"7";"85";"75";"8";"0";"0";"0";"77";"0";"9707"
"27.03.2024, 23:30";"1711585801";"150";"3";"8";"85";"75";"9";"0";"0";"0";"78";"0";"9707"
"27.03.2024, 23:40";"1711586401";"147";"3";"8";"85";"75";"9";"0";"0";"0";"76";"0";"9707"
"27.03.2024, 23:50";"1711587001";"151";"3";"7";"84";"75";"8";"0";"0";"0";"77";"0";"9707"
"28.03.2024, 00:00";"1711587601";"140";"4";"9";"84";"74";"9";"0";"0";"0";"77";"0";"9702"
"28.03.2024, 00:10";"1711588201";"140";"5";"12";"84";"74";"9";"0";"0";"0";"76";"0";"9702"
"28.03.2024, 00:20";"1711588801";"149";"4";"10";"84";"73";"9";"0";"0";"0";"77";"0";"9702"
"28.03.2024, 00:30";"1711589401";"139";"5";"13";"84";"72";"9";"0";"0";"0";"77";"0";"9702"
"28.03.2024, 00:40";"1711590001";"142";"5";"11";"85";"72";"9";"0";"0";"0";"78";"0";"9702"
"28.03.2024, 00:50";"1711590601";"148";"5";"11";"84";"72";"9";"0";"0";"0";"77";"0";"9702"
"28.03.2024, 01:00";"1711591201";"153";"6";"12";"84";"72";"8";"0";"0";"0";"77";"0";"9693"
"28.03.2024, 01:10";"1711591801";"151";"6";"12";"83";"72";"8";"0";"0";"0";"75";"0";"9693"
"28.03.2024, 01:20";"1711592401";"143";"6";"11";"83";"72";"9";"0";"0";"0";"77";"0";"9693"
"28.03.2024, 01:30";"1711593001";"139";"6";"14";"83";"73";"8";"0";"0";"0";"77";"0";"9693"
"28.03.2024, 01:40";"1711593601";"138";"6";"14";"83";"73";"9";"0";"0";"0";"76";"0";"9693"
"28.03.2024, 01:50";"1711594201";"143";"6";"11";"83";"73";"9";"0";"0";"0";"75";"0";"9693"
"28.03.2024, 02:00";"1711594801";"150";"5";"11";"82";"73";"8";"0";"0";"0";"75";"0";"9693"
"28.03.2024, 02:10";"1711595401";"141";"5";"11";"82";"73";"9";"0";"0";"0";"74";"0";"9693"
"28.03.2024, 02:20";"1711596001";"146";"5";"12";"82";"73";"8";"0";"0";"0";"75";"0";"9693"
"28.03.2024, 02:30";"1711596601";"147";"6";"12";"82";"73";"8";"0";"0";"0";"75";"0";"9693"
"28.03.2024, 02:40";"1711597201";"150";"6";"14";"81";"74";"8";"0";"0";"0";"73";"0";"9693"
"28.03.2024, 02:50";"1711597801";"158";"6";"11";"81";"73";"8";"0";"0";"0";"74";"0";"9693"
"28.03.2024, 03:00";"1711598401";"140";"6";"11";"81";"73";"9";"0";"0";"0";"74";"0";"9688"
"28.03.2024, 03:10";"1711599001";"134";"5";"13";"82";"72";"9";"0";"0";"0";"74";"0";"9688"
"28.03.2024, 03:20";"1711599602";"132";"5";"10";"81";"72";"9";"0";"0";"0";"72";"0";"9688"
"28.03.2024, 03:30";"1711600201";"133";"4";"10";"81";"72";"9";"0";"0";"0";"72";"0";"9688"
"28.03.2024, 03:40";"1711600801";"130";"4";"10";"81";"72";"9";"0";"0";"0";"72";"0";"9688"
"28.03.2024, 03:50";"1711601401";"125";"4";"10";"80";"72";"9";"0";"0";"0";"71";"0";"9688"
"28.03.2024, 04:00";"1711602001";"141";"5";"12";"80";"72";"9";"0";"0";"0";"70";"0";"9676"
"28.03.2024, 04:10";"1711602601";"136";"4";"9";"79";"72";"9";"0";"0";"0";"70";"0";"9676"
"28.03.2024, 04:20";"1711603201";"137";"4";"9";"79";"72";"9";"0";"0";"0";"70";"0";"9676"
"28.03.2024, 04:30";"1711603801";"125";"4";"14";"78";"72";"9";"0";"0";"0";"68";"0";"9676"
"28.03.2024, 04:40";"1711604401";"123";"4";"8";"78";"72";"19";"0";"0";"0";"70";"0";"9676"
"28.03.2024, 04:50";"1711605001";"120";"5";"12";"79";"72";"106";"0";"0";"0";"70";"0";"9676"
"28.03.2024, 05:00";"1711605601";"122";"5";"12";"79";"71";"313";"3";"0";"0";"71";"0";"9669"
"28.03.2024, 05:10";"1711606201";"128";"5";"11";"79";"71";"1,221";"10";"0";"0";"71";"0";"9669"
"28.03.2024, 05:20";"1711606801";"127";"5";"13";"80";"71";"1,554";"10";"0";"0";"71";"0";"9669"
"28.03.2024, 05:30";"1711607401";"130";"5";"14";"82";"70";"1,882";"10";"0";"0";"76";"0";"9669"
"28.03.2024, 05:40";"1711608001";"138";"7";"14";"83";"70";"1,710";"10";"0";"0";"76";"0";"9669"
"28.03.2024, 05:50";"1711608601";"148";"6";"17";"84";"69";"2,146";"10";"0";"0";"78";"0";"9669"
"28.03.2024, 06:00";"1711609201";"147";"7";"15";"86";"69";"2,271";"10";"0";"0";"82";"0";"9672"
"28.03.2024, 06:10";"1711609801";"153";"6";"16";"90";"66";"2,475";"10";"0";"0";"91";"0";"9672"
"28.03.2024, 06:20";"1711610401";"169";"8";"17";"92";"64";"1,866";"9";"0";"0";"93";"0";"9672"
"28.03.2024, 06:30";"1711611001";"172";"8";"17";"96";"64";"1,106";"7";"0";"0";"101";"0";"9672"
"28.03.2024, 06:40";"1711611601";"169";"9";"17";"97";"64";"435";"4";"0";"0";"100";"0";"9672"
"28.03.2024, 06:50";"1711612201";"165";"8";"15";"97";"63";"186";"0";"0";"0";"99";"0";"9672"
"28.03.2024, 07:00";"1711612801";"165";"6";"15";"96";"64";"102";"0";"1";"0";"94";"0";"9679"
"28.03.2024, 07:10";"1711613401";"154";"7";"14";"93";"67";"84";"0";"2";"0";"80";"0";"9679"
"28.03.2024, 07:20";"1711614001";"166";"6";"14";"90";"71";"49";"0";"10";"0";"76";"0";"9679"
"28.03.2024, 07:30";"1711614601";"176";"7";"13";"85";"76";"71";"0";"10";"0";"68";"0";"9679"
"28.03.2024, 07:40";"1711615201";"171";"5";"13";"81";"80";"44";"0";"10";"0";"67";"0";"9679"
"28.03.2024, 07:50";"1711615801";"167";"6";"11";"79";"81";"40";"0";"10";"0";"67";"0";"9679"
"28.03.2024, 08:00";"1711616401";"166";"5";"12";"77";"82";"33";"0";"10";"0";"66";"0";"9684"
"28.03.2024, 08:10";"1711617001";"165";"5";"10";"77";"84";"37";"0";"10";"0";"67";"0";"9684"
"28.03.2024, 08:20";"1711617602";"163";"6";"10";"76";"84";"45";"0";"10";"0";"68";"0";"9684"
"28.03.2024, 08:30";"1711618201";"161";"7";"13";"75";"85";"59";"0";"10";"0";"68";"0";"9684"
"28.03.2024, 08:40";"1711618801";"163";"7";"17";"75";"85";"81";"0";"10";"0";"73";"0";"9684"
"28.03.2024, 08:50";"1711619401";"163";"5";"11";"77";"87";"117";"0";"10";"0";"74";"0";"9684"
"28.03.2024, 09:00";"1711620001";"166";"5";"11";"78";"87";"102";"0";"10";"0";"75";"0";"9686"
"28.03.2024, 09:10";"1711620601";"171";"5";"10";"78";"87";"81";"0";"10";"0";"73";"0";"9686"
"28.03.2024, 09:20";"1711621201";"175";"5";"10";"79";"88";"67";"0";"10";"0";"74";"0";"9686"
"28.03.2024, 09:30";"1711621801";"179";"5";"11";"79";"87";"53";"0";"10";"0";"72";"0";"9686"
"28.03.2024, 09:40";"1711622401";"186";"5";"12";"79";"87";"22";"0";"10";"0";"72";"0";"9686"
"28.03.2024, 09:50";"1711623001";"193";"7";"16";"79";"85";"38";"0";"10";"0";"70";"0";"9686"
"28.03.2024, 10:00";"1711623601";"188";"7";"16";"79";"86";"83";"0";"10";"0";"76";"0";"9700"
"28.03.2024, 10:10";"1711624201";"195";"7";"13";"81";"84";"183";"0";"10";"0";"76";"0";"9700"
"28.03.2024, 10:20";"1711624801";"191";"7";"14";"82";"84";"112";"0";"10";"0";"78";"0";"9700"
"28.03.2024, 10:30";"1711625401";"193";"8";"15";"84";"84";"111";"0";"10";"0";"79";"0";"9700"
"28.03.2024, 10:40";"1711626001";"183";"6";"14";"88";"85";"237";"0";"10";"0";"99";"0";"9700"
"28.03.2024, 10:50";"1711626601";"180";"6";"12";"93";"82";"584";"6";"10";"0";"101";"0";"9700"
"28.03.2024, 11:00";"1711627201";"195";"8";"16";"101";"74";"1,124";"10";"2";"0";"95";"0";"9707"
"28.03.2024, 11:10";"1711627801";"206";"10";"21";"105";"68";"643";"5";"0";"0";"109";"0";"9707"
"28.03.2024, 11:20";"1711628401";"205";"10";"18";"108";"67";"878";"9";"0";"0";"99";"0";"9707"
"28.03.2024, 11:30";"1711629001";"236";"6";"16";"107";"65";"280";"1";"0";"0";"93";"0";"9707"
"28.03.2024, 11:40";"1711629601";"231";"7";"15";"109";"58";"227";"0";"0";"0";"96";"0";"9707"
"28.03.2024, 11:50";"1711630201";"207";"10";"19";"114";"55";"276";"0";"0";"0";"120";"0";"9707"
"28.03.2024, 12:00";"1711630801";"205";"10";"22";"117";"51";"1,730";"9";"0";"0";"114";"0";"9714"
"28.03.2024, 12:10";"1711631401";"210";"11";"21";"116";"52";"643";"2";"0";"0";"110";"0";"9714"
"28.03.2024, 12:20";"1711632001";"220";"10";"21";"114";"54";"121";"0";"0";"0";"105";"0";"9714"
"28.03.2024, 12:30";"1711632601";"198";"12";"31";"110";"58";"94";"0";"0";"0";"114";"0";"9714"
"28.03.2024, 12:40";"1711633201";"195";"12";"24";"109";"58";"1,700";"8";"0";"0";"107";"0";"9714"
"28.03.2024, 12:50";"1711633801";"188";"12";"21";"112";"58";"2,726";"10";"0";"0";"114";"0";"9714"
"28.03.2024, 13:00";"1711634401";"199";"14";"30";"114";"56";"2,580";"10";"0";"0";"113";"0";"9723"
"28.03.2024, 13:10";"1711635002";"200";"14";"28";"117";"56";"3,041";"10";"0";"0";"116";"0";"9723"
"28.03.2024, 13:20";"1711635601";"199";"11";"25";"118";"55";"2,150";"9";"0";"0";"117";"0";"9723"
"28.03.2024, 13:30";"1711636202";"202";"12";"25";"119";"54";"826";"4";"0";"0";"122";"0";"9723"
"28.03.2024, 13:40";"1711636801";"202";"12";"24";"120";"53";"1,006";"3";"0";"0";"118";"0";"9723"
"28.03.2024, 13:50";"1711637401";"202";"11";"25";"120";"49";"228";"1";"0";"0";"115";"0";"9723"
"28.03.2024, 14:00";"1711638001";"201";"12";"23";"119";"49";"193";"0";"0";"0";"118";"0";"9730"
"28.03.2024, 14:10";"1711638601";"195";"9";"19";"120";"47";"209";"0";"0";"0";"118";"0";"9730"
"28.03.2024, 14:20";"1711639201";"204";"10";"22";"119";"47";"85";"0";"0";"0";"115";"0";"9730"
"28.03.2024, 14:30";"1711639801";"201";"9";"20";"119";"49";"95";"0";"0";"0";"114";"0";"9730"
"28.03.2024, 14:40";"1711640401";"196";"7";"17";"118";"49";"92";"0";"0";"0";"113";"0";"9730"
"28.03.2024, 14:50";"1711641001";"195";"9";"20";"117";"50";"56";"0";"0";"0";"112";"0";"9730"
"28.03.2024, 15:00";"1711641601";"190";"8";"18";"116";"51";"52";"0";"0";"0";"111";"0";"9735"
"28.03.2024, 15:10";"1711642201";"188";"10";"21";"116";"53";"40";"0";"0";"0";"108";"0";"9735"
"28.03.2024, 15:20";"1711642801";"190";"11";"22";"114";"53";"21";"0";"1";"0";"104";"0";"9735"
"28.03.2024, 15:30";"1711643401";"207";"7";"15";"113";"52";"34";"0";"0";"0";"105";"0";"9735"
"28.03.2024, 15:40";"1711644001";"193";"8";"17";"113";"54";"70";"0";"0";"0";"107";"0";"9735"
"28.03.2024, 15:50";"1711644601";"190";"6";"11";"112";"55";"147";"0";"0";"0";"105";"0";"9735"
"28.03.2024, 16:00";"1711645201";"184";"5";"10";"112";"55";"402";"3";"0";"0";"104";"0";"9740"
"28.03.2024, 16:10";"1711645801";"173";"5";"10";"112";"55";"453";"6";"0";"0";"105";"0";"9740"
"28.03.2024, 16:20";"1711646401";"167";"5";"12";"113";"55";"590";"8";"0";"0";"102";"0";"9740"
"28.03.2024, 16:30";"1711647001";"171";"6";"13";"112";"55";"724";"8";"0";"0";"102";"0";"9740"
"28.03.2024, 16:40";"1711647601";"160";"6";"14";"110";"56";"341";"2";"0";"0";"99";"0";"9740"
"28.03.2024, 16:50";"1711648201";"155";"6";"12";"109";"58";"308";"2";"0";"0";"94";"0";"9740"
"28.03.2024, 17:00";"1711648801";"156";"5";"13";"106";"59";"96";"0";"0";"0";"92";"0";"9742"
"28.03.2024, 17:10";"1711649401";"164";"5";"13";"104";"60";"24";"0";"0";"0";"91";"0";"9742"
"28.03.2024, 17:20";"1711650001";"167";"5";"11";"103";"61";"10";"0";"0";"0";"92";"0";"9742"
"28.03.2024, 17:30";"1711650601";"161";"5";"10";"102";"62";"8";"0";"0";"0";"91";"0";"9742"
"28.03.2024, 17:40";"1711651201";"167";"5";"13";"102";"62";"8";"0";"0";"0";"90";"0";"9742"
"28.03.2024, 17:50";"1711651801";"170";"5";"12";"101";"63";"8";"0";"0";"0";"88";"0";"9742"
"28.03.2024, 18:00";"1711652401";"176";"5";"11";"101";"63";"8";"0";"0";"0";"88";"0";"9747"
"28.03.2024, 18:10";"1711653001";"173";"5";"9";"101";"63";"8";"0";"0";"0";"88";"0";"9747"
"28.03.2024, 18:20";"1711653601";"177";"4";"10";"101";"63";"8";"0";"0";"0";"92";"0";"9747"
"28.03.2024, 18:30";"1711654201";"173";"4";"10";"102";"64";"8";"0";"0";"0";"92";"0";"9747"
"28.03.2024, 18:40";"1711654802";"182";"4";"10";"102";"62";"8";"0";"0";"0";"91";"0";"9747"
"28.03.2024, 18:50";"1711655401";"184";"7";"13";"104";"60";"7";"0";"0";"0";"95";"0";"9747"